Weather History for La Grande, OR

Change the Weather History Date:

Friday, June 15, 2012

  Actual Average Record
Temperature  
Mean Temperature 60 °F -  
Max Temperature 73 °F 71 °F 95 °F (1974)
Min Temperature 46 °F 45 °F 38 °F (1978)
Degree Days  
Heating Degree Days 6    
Growing Degree Days 10 (Base 50)    
Moisture  
Dew Point 37 °F    
Average Humidity 43    
Maximum Humidity 66    
Minimum Humidity 22    
Precipitation  
Precipitation 0.00 in - - ()
Sea Level Pressure  
Sea Level Pressure 30.11 in    
Wind  
Wind Speed 11 mph (NNW)    
Max Wind Speed 15 mph    
Max Gust Speed 22 mph    
Visibility 10 miles    
Events      
Averages and records for this station are not official NWS values.
T = Trace of Precipitation, MM = Missing Value Source: NWS Daily Summary

Daily Weather History Graph

Daily Weather History Graph

Search for Another Location

Airport:

Trip Planner

Search our weather history database for the weather conditions in past years. The results will help you decide how hot, cold, wet, or windy it might be!

Date:

Astronomy

Jun. 15, 2012 Rise Set
Actual Time 5:03 AM PDT 8:41 PM PDT
Civil Twilight 4:25 AM PDT 9:19 PM PDT
Nautical Twilight 3:35 AM PDT 10:09 PM PDT
Astronomical Twilight 2:28 AM PDT 11:17 PM PDT
Moon 2:26 AM PDT (6/15) 5:21 PM PDT (6/15)
Length of Visible Light 16h 53m
Length of Day
15h 38m
Waning Crescent, 13% of the Moon is Illuminated
Jun 15
Waning Crescent
Jun 19
New
Jun 26
First Quarter
Jul 3
Full
Jul 10
Last Quarter

Hourly Weather History & Observations

Time (PDT) Temp. Windchill Dew Point Humidity Pressure Visibility Wind Dir Wind Speed Gust Speed Precip Events Conditions
12:15 AM 57.2 °F - 35.6 °F 44% 30.02 in 10.0 mi West 11.5 mph - N/A   Clear
12:35 AM 57.2 °F - 37.4 °F 48% 30.02 in 10.0 mi WNW 13.8 mph 19.6 mph N/A   Clear
12:55 AM 57.2 °F - 37.4 °F 48% 30.02 in 10.0 mi NW 15.0 mph 21.9 mph N/A   Clear
1:15 AM 57.2 °F - 37.4 °F 48% 30.03 in 10.0 mi NW 13.8 mph - N/A   Clear
1:35 AM 57.2 °F - 37.4 °F 48% 30.03 in 10.0 mi WNW 15.0 mph - N/A   Clear
1:55 AM 55.4 °F - 39.2 °F 54% 30.04 in 10.0 mi WNW 12.7 mph 19.6 mph N/A   Clear
2:15 AM 55.4 °F - 37.4 °F 51% 30.04 in 10.0 mi WNW 10.4 mph - N/A   Clear
2:35 AM 55.4 °F - 39.2 °F 54% 30.04 in 10.0 mi WNW 10.4 mph - N/A   Clear
2:55 AM 53.6 °F - 37.4 °F 54% 30.04 in 10.0 mi WNW 11.5 mph - N/A   Clear
3:15 AM 53.6 °F - 37.4 °F 54% 30.05 in 10.0 mi WNW 9.2 mph - N/A   Clear
3:35 AM 53.6 °F - 37.4 °F 54% 30.05 in 10.0 mi NW 11.5 mph - N/A   Clear
3:55 AM 53.6 °F - 37.4 °F 54% 30.06 in 10.0 mi WNW 12.7 mph - N/A   Clear
4:15 AM 50.0 °F - 37.4 °F 62% 30.07 in 10.0 mi North 9.2 mph - N/A   Clear
4:35 AM 51.8 °F - 37.4 °F 58% 30.07 in 10.0 mi North 10.4 mph - N/A   Clear
4:55 AM 50.0 °F - 37.4 °F 62% 30.08 in 10.0 mi North 8.1 mph - N/A   Clear
5:15 AM 46.4 °F 42.9 °F 35.6 °F 66% 30.08 in 10.0 mi North 6.9 mph - N/A   Clear
5:35 AM 48.2 °F - 37.4 °F 66% 30.09 in 10.0 mi North 8.1 mph - N/A   Clear
5:55 AM 51.8 °F - 37.4 °F 58% 30.09 in 10.0 mi North 9.2 mph - N/A   Clear
6:15 AM 48.2 °F - 37.4 °F 66% 30.09 in 10.0 mi North 10.4 mph - N/A   Clear
6:35 AM 51.8 °F - 39.2 °F 62% 30.10 in 10.0 mi North 10.4 mph - N/A   Clear
6:55 AM 51.8 °F - 39.2 °F 62% 30.11 in 10.0 mi North 10.4 mph - N/A   Clear
7:15 AM 53.6 °F - 39.2 °F 58% 30.12 in 10.0 mi NNW 12.7 mph - N/A   Clear
7:35 AM 55.4 °F - 39.2 °F 54% 30.12 in 10.0 mi NW 10.4 mph - N/A   Clear
7:55 AM 57.2 °F - 39.2 °F 51% 30.12 in 10.0 mi NW 12.7 mph - N/A   Clear
8:15 AM 57.2 °F - 39.2 °F 51% 30.13 in 10.0 mi NNW 11.5 mph - N/A   Clear
8:35 AM 59.0 °F - 39.2 °F 48% 30.13 in 10.0 mi NW 11.5 mph - N/A   Clear
8:55 AM 60.8 °F - 41.0 °F 48% 30.14 in 10.0 mi NW 10.4 mph 17.3 mph N/A   Clear
9:15 AM 60.8 °F - 41.0 °F 48% 30.13 in 10.0 mi NW 10.4 mph 16.1 mph N/A   Clear
9:35 AM 62.6 °F - 39.2 °F 42% 30.14 in 10.0 mi West 9.2 mph - N/A   Clear
10:15 AM 62.6 °F - 41.0 °F 45% 30.13 in 10.0 mi ENE 6.9 mph - N/A   Clear
10:35 AM 64.4 °F - 42.8 °F 45% 30.13 in 10.0 mi WNW 3.5 mph - N/A   Clear
10:55 AM 64.4 °F - 42.8 °F 45% 30.14 in 10.0 mi NNE 9.2 mph - N/A   Clear
11:15 AM 64.4 °F - 41.0 °F 42% 30.14 in 10.0 mi North 5.8 mph - N/A   Clear
11:35 AM 66.2 °F - 41.0 °F 40% 30.14 in 10.0 mi NE 6.9 mph - N/A   Clear
11:55 AM 66.2 °F - 41.0 °F 40% 30.14 in 10.0 mi NNE 8.1 mph - N/A   Clear
12:15 PM 68.0 °F - 41.0 °F 37% 30.14 in 10.0 mi NE 9.2 mph 16.1 mph N/A   Clear
12:35 PM 69.8 °F - 39.2 °F 33% 30.14 in 10.0 mi NE 8.1 mph - N/A   Clear
12:55 PM 69.8 °F - 42.8 °F 38% 30.14 in 10.0 mi North 5.8 mph - N/A   Clear
1:15 PM 69.8 °F - 41.0 °F 35% 30.14 in 10.0 mi North 6.9 mph - N/A   Clear
1:35 PM 71.6 °F - 39.2 °F 31% 30.13 in 10.0 mi NNE 8.1 mph 16.1 mph N/A   Clear
1:55 PM 71.6 °F - 39.2 °F 31% 30.13 in 10.0 mi NE 9.2 mph - N/A   Clear
2:15 PM 71.6 °F - 39.2 °F 31% 30.12 in 10.0 mi North 9.2 mph - N/A   Clear
2:35 PM 71.6 °F - 39.2 °F 31% 30.12 in 10.0 mi North 9.2 mph - N/A   Clear
2:55 PM 73.4 °F - 39.2 °F 29% 30.12 in 10.0 mi North 6.9 mph - N/A   Clear
3:15 PM 73.4 °F - 37.4 °F 27% 30.12 in 10.0 mi NNE 9.2 mph - N/A   Clear
3:35 PM 73.4 °F - 37.4 °F 27% 30.13 in 10.0 mi NNE 9.2 mph - N/A   Clear
3:55 PM 73.4 °F - 37.4 °F 27% 30.12 in 10.0 mi WNW 8.1 mph - N/A   Clear
4:15 PM 73.4 °F - 37.4 °F 27% 30.12 in 10.0 mi North 11.5 mph - N/A   Clear
4:35 PM 73.4 °F - 37.4 °F 27% 30.13 in 10.0 mi North 5.8 mph - N/A   Clear
4:55 PM 73.4 °F - 37.4 °F 27% 30.13 in 10.0 mi North 5.8 mph - N/A   Clear
5:15 PM 73.4 °F - 33.8 °F 23% 30.12 in 10.0 mi NW 11.5 mph - N/A   Clear
5:35 PM 73.4 °F - 33.8 °F 23% 30.12 in 10.0 mi NW 12.7 mph 17.3 mph N/A   Clear
5:55 PM 73.4 °F - 33.8 °F 23% 30.13 in 10.0 mi NW 11.5 mph - N/A   Clear
6:15 PM 71.6 °F - 33.8 °F 25% 30.12 in 10.0 mi WNW 11.5 mph - N/A   Clear
6:35 PM 73.4 °F - 33.8 °F 23% 30.13 in 10.0 mi WNW 10.4 mph - N/A   Clear
6:55 PM 71.6 °F - 30.2 °F 22% 30.12 in 10.0 mi WNW 11.5 mph - N/A   Clear
7:35 PM 69.8 °F - 32.0 °F 25% 30.13 in 10.0 mi WNW 11.5 mph - N/A   Clear
7:55 PM 68.0 °F - 30.2 °F 24% 30.14 in 10.0 mi WNW 9.2 mph - N/A   Clear
8:15 PM 66.2 °F - 33.8 °F 30% 30.14 in 10.0 mi NW 11.5 mph - N/A   Clear
8:35 PM 62.6 °F - 35.6 °F 37% 30.14 in 10.0 mi WNW 10.4 mph - N/A   Clear
8:55 PM 62.6 °F - 33.8 °F 34% 30.15 in 10.0 mi WNW 11.5 mph - N/A   Clear
9:15 PM 62.6 °F - 33.8 °F 34% 30.15 in 10.0 mi WNW 9.2 mph - N/A   Clear
9:35 PM 60.8 °F - 33.8 °F 36% 30.16 in 10.0 mi WNW 10.4 mph - N/A   Clear
9:55 PM 60.8 °F - 35.6 °F 39% 30.16 in 10.0 mi WNW 11.5 mph - N/A   Clear
10:15 PM 57.2 °F - 35.6 °F 44% 30.16 in 10.0 mi North 8.1 mph - N/A   Clear
10:35 PM 55.4 °F - 35.6 °F 47% 30.17 in 10.0 mi North 9.2 mph - N/A   Clear
10:55 PM 57.2 °F - 35.6 °F 44% 30.17 in 10.0 mi North 8.1 mph - N/A   Clear
11:15 PM 55.4 °F - 35.6 °F 47% 30.17 in 10.0 mi North 9.2 mph - N/A   Clear
11:35 PM 51.8 °F - 35.6 °F 54% 30.17 in 10.0 mi North 10.4 mph - N/A   Clear
11:55 PM 50.0 °F - 35.6 °F 58% 30.17 in 10.0 mi North 6.9 mph - N/A   Clear